[[{"header":{"parameterUnit":"m.s-1","parameterCategory":1,"la1":30.2992,"la2":30.254,"lo1":-89.0895,"lo2":-89.0443,"dy":0.0025,"dx":0.0025,"nx":19,"ny":19,"refTime":"2026-04-25T21:00:00:Z","depth":0,"parameterNumber":2,"parameterNumberName":"U-component_of_WINDS"},"data":[0,0,0,-3.6883,-3.6886,-3.7035,-3.7035,-3.7205,-3.7207,0,0,0,0,0,0,0,0,0,0,0,-3.6831,-3.6832,-3.6882,-3.6886,-3.7035,-3.7035,-3.7205,-3.7207,0,0,0,0,0,0,0,0,0,0,0,-3.683,-3.6832,-3.6833,-3.6886,-3.7034,-3.7035,-3.7205,-3.7098,0,0,0,0,0,0,0,0,0,0,-3.6957,-3.6903,-3.6831,-3.6833,-3.6887,-3.7034,-3.7035,-3.7094,-3.7105,-3.7131,0,-3.7156,0,-3.7184,-3.7217,-3.7218,0,0,0,-3.689,-3.6893,-3.6941,-3.6833,-3.6889,-3.7034,-3.6969,-3.71,-3.7113,-3.7146,-3.7158,-3.7165,-3.7187,-3.7218,-3.7219,-3.7363,-3.7363,0,0,-3.6882,-3.6852,-3.6932,-3.6949,-3.693,-3.6964,-3.6973,-3.7108,-3.7118,-3.7159,-3.7169,-3.719,-3.7219,-3.722,-3.7363,-3.7363,0,0,0,-3.6855,-3.6846,-3.6891,-3.6942,-3.697,-3.6968,-3.6979,-3.7112,-3.7129,-3.7171,-3.7192,-3.722,-3.7222,-3.7362,-3.7363,-3.7358,0,0,0,-3.6851,-3.6831,-3.6887,-3.687,-3.6968,-3.7044,-3.6979,-3.712,-3.7136,-3.7191,-3.722,-3.7224,-3.7362,-3.7363,-3.7358,-3.736,0,0,0,-3.6824,-3.6828,-3.6848,-3.6869,-3.6932,-3.7043,-3.7068,-3.7124,-3.7149,-3.7218,-3.7224,-3.7362,-3.7362,-3.7357,-3.7359,-3.7389,0,0,0,-3.6785,-3.6839,-3.6847,-3.6916,-3.6931,-3.7041,-3.7067,-3.715,-3.7209,-3.7221,-3.7362,-3.7363,-3.7357,-3.7358,-3.7388,-3.7408,-3.7414,0,0,-3.6837,-3.6845,-3.6888,-3.6899,-3.7,-3.702,-3.712,-3.7199,-3.7231,-3.7316,-3.732,-3.7358,-3.7359,-3.7389,-3.7463,-3.7467,0,0,0,-3.6894,-3.6924,-3.6957,-3.7015,-3.708,-3.7135,-3.7204,-3.7233,-3.7308,-3.727,-3.7379,-3.738,-3.7399,-3.7409,-3.7413,-3.743,-3.7367,-3.7367,-3.7367,-3.6922,-3.6964,-3.7037,-3.7095,-3.715,-3.7222,-3.7268,-3.7319,-3.7342,-3.7366,-3.7391,-3.7432,-3.7444,-3.7447,-3.7464,-3.7407,-3.7407,-3.7407,-3.7407,-3.7001,-3.7049,-3.7082,-3.7164,-3.7205,-3.7273,-3.7342,-3.7356,-3.7423,-3.7416,-3.7435,-3.7423,-3.7451,-3.7468,-3.7407,-3.7407,-3.7407,-3.7407,-3.7407,-3.7023,-3.7053,-3.7091,-3.7179,-3.724,-3.7297,-3.736,-3.7395,-3.7427,-3.7446,-3.7475,-3.7475,-3.7477,-3.7458,-3.7458,-3.7458,-3.7458,-3.7458,-3.7458,-3.7029,-3.7073,-3.7125,-3.72,-3.7241,-3.7299,-3.7372,-3.7412,-3.7464,-3.7484,-3.7485,-3.7503,-3.7448,-3.7432,-3.7461,-3.746,-3.746,-3.746,-3.746,-3.709,-3.7083,-3.7162,-3.7204,-3.7295,-3.7352,-3.7398,-3.7476,-3.7514,-3.7543,-3.7559,-3.7514,-3.7522,-3.7519,-3.7506,-3.7552,-3.7552,-3.7552,-3.7552,-3.7107,-3.7117,-3.7206,-3.727,-3.7337,-3.7386,-3.747,-3.7526,-3.7582,-3.7607,-3.7606,-3.7593,-3.7588,-3.7599,-3.7594,-3.7583,-3.7647,-3.7647,-3.7647,-3.7146,-3.7164,-3.7231,-3.729,-3.7364,-3.7424,-3.7504,-3.7572,-3.7634,-3.7652,-3.7627,-3.7623,-3.7602,-3.7593,-3.7608,-3.76,-3.7579,0,0]},{"header":{"parameterUnit":"m.s-1","parameterCategory":1,"la1":30.2992,"la2":30.254,"lo1":-89.0895,"lo2":-89.0443,"dy":0.0025,"dx":0.0025,"nx":19,"ny":19,"refTime":"2026-04-25T21:00:00:Z","depth":0,"parameterNumber":3,"parameterNumberName":"V-component_of_WINDS"},"data":[0,0,0,2.599,2.599,2.5968,2.5968,2.5974,2.5974,0,0,0,0,0,0,0,0,0,0,0,2.6016,2.6017,2.599,2.599,2.5968,2.5968,2.5974,2.5974,0,0,0,0,0,0,0,0,0,0,0,2.6016,2.6017,2.6018,2.599,2.5968,2.5968,2.5974,2.5978,0,0,0,0,0,0,0,0,0,0,2.5993,2.6037,2.6016,2.6018,2.599,2.5968,2.5968,2.5978,2.5978,2.5998,0,2.6021,0,2.5998,2.5977,2.5977,0,0,0,2.5975,2.6037,2.6013,2.6018,2.599,2.5969,2.5974,2.5977,2.5978,2.5998,2.6021,2.602,2.5998,2.5977,2.5977,2.6145,2.6147,0,0,2.5976,2.6023,2.6013,2.6015,2.602,2.5975,2.5973,2.5977,2.6004,2.6021,2.602,2.5998,2.5977,2.5978,2.6144,2.6146,0,0,0,2.599,2.6024,2.6,2.6015,2.6009,2.5974,2.5973,2.6004,2.5992,2.6019,2.5998,2.5977,2.5978,2.6142,2.6145,2.6264,0,0,0,2.599,2.6032,2.6001,2.6029,2.6009,2.6006,2.6001,2.5992,2.5991,2.5998,2.5978,2.5978,2.6141,2.6144,2.6257,2.6312,0,0,0,2.6011,2.6034,2.6038,2.6032,2.6024,2.6005,2.5993,2.5991,2.5979,2.5977,2.5978,2.6139,2.6143,2.6251,2.6302,2.6371,0,0,0,2.6046,2.6142,2.6041,2.614,2.6025,2.608,2.5992,2.603,2.6043,2.5978,2.6141,2.6144,2.6249,2.6295,2.6365,2.6437,2.6472,0,0,2.6193,2.6162,2.6217,2.6125,2.621,2.6079,2.6181,2.6148,2.6105,2.6135,2.6138,2.626,2.6301,2.637,2.6651,2.6679,0,0,0,2.628,2.632,2.6332,2.6347,2.6326,2.6312,2.6259,2.6247,2.6271,2.613,2.6302,2.6325,2.6364,2.6396,2.642,2.645,2.6162,2.6161,2.6161,2.6553,2.6495,2.6583,2.6524,2.654,2.6486,2.6494,2.6469,2.6403,2.6446,2.6454,2.6632,2.6672,2.6689,2.6722,2.6488,2.6488,2.6489,2.6489,2.6763,2.6811,2.6726,2.6781,2.672,2.6766,2.672,2.6673,2.6707,2.662,2.6651,2.656,2.6722,2.6747,2.6497,2.6496,2.6495,2.6494,2.6493,2.6934,2.6947,2.6934,2.6952,2.6974,2.6911,2.6949,2.6891,2.6837,2.6868,2.6871,2.6869,2.686,2.6874,2.6875,2.6875,2.6876,2.6876,2.6877,2.7117,2.7098,2.7137,2.7126,2.7131,2.7129,2.708,2.7082,2.7071,2.7026,2.7026,2.6958,2.6749,2.6697,2.6886,2.6884,2.6883,2.6882,2.6882,2.735,2.7289,2.735,2.7355,2.7339,2.7366,2.7294,2.7306,2.73,2.7321,2.7248,2.7103,2.7066,2.7046,2.7003,2.726,2.726,2.726,2.726,2.7494,2.7471,2.7522,2.7534,2.754,2.7483,2.7555,2.752,2.7474,2.7467,2.7422,2.7361,2.7344,2.7317,2.7291,2.725,2.7564,2.7564,2.7564,2.7634,2.761,2.7682,2.7637,2.7622,2.7612,2.7679,2.7698,2.7632,2.7576,2.7461,2.7448,2.7349,2.7319,2.7257,2.7219,2.7143,0,0]}]]